Tracking 27112 objects as of 26-Mar-2023
HD Live streaming from Space Station
objects crossing your sky now

STARLINK-4501

Track STARLINK-4501 now!
10-day predictions
STARLINK-4501 is classified as:


NORAD ID: 53553
Int'l Code: 2022-101AC
Perigee: 546.1 km
Apogee: 547.7 km
Inclination: 53.2 °
Period: 95.4 minutes
Semi major axis: 6917 km
RCS: Unknown
Launch date: August 19, 2022
Source: United States (US)
Launch site: AIR FORCE EASTERN TEST RANGE (AFETR)
Your satellite tracking list
Your tracking list is empty




NASA's NSSDC Master Catalog

Two Line Element Set (TLE):
1 53553U 22101AC  23085.09033298 -.00002997  00000-0 -17032-3 0  9994
2 53553  53.2180 230.6311 0001117  90.1464 269.9656 15.08833186 33329
Source of the keplerian elements: AFSPC